This is the latest recevied weather packets stored in our database for station/object WD5U-1. If no packets are shown the sender has not sent any weather packets the latest 10 day(s).
| Time | Temp. | Humidity | Pressure | Rain* | Wind** | Luminosity | Snow |
|---|---|---|---|---|---|---|---|
| 1777914179 | 22.22° C | 68% | 1012.4 hPa | 0 mm | - | - | - |
| 1777914017 | 22.22° C | 67% | 1012.4 hPa | 0 mm | - | - | - |
| 1777913784 | 22.22° C | 68% | 1012.2 hPa | 0 mm | - | - | - |
| 1777913663 | 22.78° C | 68% | 1012.2 hPa | 0 mm | - | - | - |
| 1777913541 | 22.22° C | 68% | 1012.5 hPa | 0 mm | - | - | - |
| 1777913106 | 22.22° C | 68% | 1012.8 hPa | 0 mm | - | - | - |
| 1777912458 | 22.22° C | 67% | 1013 hPa | 0 mm | - | - | - |
| 1777911143 | 21.67° C | 68% | 1013.1 hPa | 0 mm | - | - | - |
| 1777910656 | 21.67° C | 69% | 1013.3 hPa | 0 mm | - | - | - |
| 1777910181 | 21.11° C | 69% | 1013.1 hPa | 0 mm | - | - | - |
| 1777909340 | 21.11° C | 69% | 1013.1 hPa | 0 mm | - | - | - |
| 1777908976 | 21.11° C | 70% | 1013.2 hPa | 0 mm | - | - | - |
| 1777908662 | 21.11° C | 69% | 1013.1 hPa | 0 mm | - | - | - |
| 1777906577 | 20.56° C | 70% | 1013.5 hPa | 0 mm | - | - | - |
| 1777905504 | 20° C | 73% | 1013.2 hPa | 0 mm | - | - | - |
| 1777905383 | 19.44° C | 73% | 1013.5 hPa | 0 mm | - | - | - |
| 1777905261 | 19.44° C | 73% | 1013.4 hPa | 0 mm | - | - | - |
| 1777904937 | 19.44° C | 73% | 1013.7 hPa | 0 mm | - | - | - |
| 1777904179 | 19.44° C | 75% | 1013.7 hPa | 0 mm | - | - | - |
| 1777903824 | 19.44° C | 75% | 1013.8 hPa | 0 mm | - | - | - |
| 1777903127 | 18.89° C | 75% | 1013.6 hPa | 0 mm | - | - | - |
| 1777902042 | 17.78° C | 76% | 1013.8 hPa | 0 mm | - | - | - |
| 1777901658 | 18.33° C | 77% | 1013.6 hPa | 0 mm | - | - | - |
| 1777901425 | 17.78° C | 77% | 1013.5 hPa | 0 mm | - | - | - |
| 1777901182 | 17.78° C | 77% | 1013.7 hPa | 0 mm | - | - | - |
* Rain latest hour (hover to see other rain measurements)
** Current wind speed in m/s (hover to see current wind gust speed)